USA 229 - Orbit

View from above orbital plane
View from above orbital plane
View from above satellite
View from above satellite

Ground track
Ground track

The orbit data is extracted from the following two-line orbital elements,

1 37386U 11014A   13164.28885106 0.00000000  00000-0  00000-0 0    00
2 37386  63.4352 142.7941 0061000 174.4046 185.5954 13.40623936    07
Epoch (UTC): 13 June 2013 06:55:56
Eccentricity: 0.0061000
inclination: 63.4352°
perigee height: 1061 km
apogee height: 1152 km
right ascension of ascending node: 142.7941°
argument of perigee: 174.4046°
revolutions per day: 13.40623936
mean anomaly at epoch: 185.5954°
orbit number at epoch: 0

The dashed part of the orbit path shows where the satellite is in the earth's shadow,  

Developed and maintained by Chris Peat, Heavens-Above GmbH. Please read the updated FAQ before sending e-mail. Imprint. DLR